Content
SEND FEEDBACK

Daily
Averages
Monthly
Summary
Turkey

BIRECIK, TURKEY


Home > Middle East > Turkey
Elevation: 1138 feet     Latitude: 37 00N     Longitude: 038 00E

WEATHER
 
SELECT A DAY
Number of Records: 207,428;   Date Range: 7/1/96 - 9/16/14
 
SHARE

PRINT THIS DATA

[ ← Previous Day ]
WEATHER ALMANAC - FEBRUARY 3, 2013
[ Next Day → ]
[ °C ]   °F
Weather ElementAverageHighLow
Temperature42.5 °F48.2 °F (10:50 am)35.6 °F (1:20 am)
Dewpoint39.6 °F44.6 °F (12:50 pm)33.8 °F (1:20 am)
Humidity89.2 %100 % (1:50 am)81 % (3:50 pm)
Barometer30.29 in30.41 in (8:00 pm)30.18 in (12:50 am)
Wind Speed3.7 mph6.9 mph (5:20 pm)
Weather ElementAverage
Visibility3.6 mi
Wind DirectionSSE (145.8 °)

Weather ElementTotal
Precipitation---
Heating Degree Days23.1 (Base 65)
Averaged from 50 records on February 3, 2013
WEATHER CONDITIONS BREAKOUT
WIND DIRECTION BREAKOUT
WEATHER BY HOUR - FEBRUARY 3, 2013
[ °C ]   °F
Local TimeTemperatureDewpointHumidityBarometerVisibilityWind DirectionWind SpeedGust SpeedPrecipitationEventsConditions
12:50 AM37.4 °F35.6 °F93 %30.18 in6.2 miNNW (330°)4.6 mphMostly Cloudy
1:20 AM35.6 °F33.8 °F93 %30.18 in6.2 miNorth (360°)3.5 mphMostly Cloudy
1:50 AM35.6 °F35.6 °F100 %30.18 in6.2 miWest (270°)1.2 mphMostly Cloudy
2:00 AM36.0 °F35.0 °F92 %30.23 in6.0 miWest (270°)1.2 mphPartly Cloudy
2:20 AM35.6 °F33.8 °F93 %30.21 in5.0 miVariable1.2 mphMostly Cloudy
2:50 AM37.4 °F35.6 °F93 %30.18 in5.0 miNorth (350°)3.5 mphMostly Cloudy
3:20 AM37.4 °F35.6 °F93 %30.21 in5.0 miCalmMostly Cloudy
3:50 AM37.4 °F37.4 °F100 %30.21 in4.3 miCalmMostly Cloudy
4:20 AM37.4 °F37.4 °F100 %30.21 in2.5 miCalmMostly Cloudy
4:50 AM37.4 °F35.6 °F93 %30.21 in2.5 miCalmMostly Cloudy
5:20 AM37.4 °F35.6 °F93 %30.21 in4.3 miNNW (330°)2.3 mphMostly Cloudy
5:50 AM39.2 °F37.4 °F93 %30.24 in6.2 miNNW (330°)4.6 mphMostly Cloudy
6:20 AM39.2 °F37.4 °F93 %30.24 in6.2 miNNW (330°)3.5 mphMostly Cloudy
6:50 AM39.2 °F37.4 °F93 %30.24 in4.3 miCalmMostly Cloudy
7:20 AM39.2 °F37.4 °F93 %30.27 in4.3 miVariable2.3 mphMostly Cloudy
7:50 AM41.0 °F39.2 °F93 %30.27 in4.3 miEast (100°)3.5 mphMostly Cloudy
8:20 AM42.8 °F41.0 °F93 %30.27 in4.3 miSE (130°)2.3 mphMostly Cloudy
8:50 AM44.6 °F41.0 °F87 %30.30 in4.3 miCalmMostly Cloudy
9:20 AM46.4 °F42.8 °F87 %30.30 in4.3 miCalmMostly Cloudy
9:50 AM46.4 °F42.8 °F87 %30.30 in4.3 miVariable1.2 mphMostly Cloudy
10:20 AM46.4 °F42.8 °F87 %30.30 in4.3 miCalmMostly Cloudy
10:50 AM48.2 °F42.8 °F82 %30.30 in4.3 miVariable1.2 mphMostly Cloudy
11:20 AM46.4 °F42.8 °F87 %30.30 in4.3 miSSE (160°)4.6 mphMostly Cloudy
11:50 AM46.4 °F42.8 °F87 %30.30 in4.3 miSSE (150°)5.8 mphMostly Cloudy
12:20 PM44.6 °F42.8 °F93 %30.30 in1.2 miSE (130°)5.8 mphMostly Cloudy
12:50 PM46.4 °F44.6 °F93 %30.30 inSE (130°)5.8 mphMostly Cloudy
1:20 PM46.4 °F44.6 °F93 %30.30 inESE (110°)5.8 mphMostly Cloudy
1:50 PM46.4 °F42.8 °F87 %30.30 in2.5 miESE (120°)3.5 mphMostly Cloudy
2:00 PM46.0 °F44.0 °F88 %30.35 in2.0 miESE (120°)3.5 mphMist
2:20 PM46.4 °F44.6 °F93 %30.30 in2.5 miVariable2.3 mphMostly Cloudy
2:50 PM46.4 °F42.8 °F87 %30.30 in2.5 miEast (80°)5.8 mphMostly Cloudy
3:20 PM46.4 °F42.8 °F87 %30.30 in2.5 miEast (80°)3.5 mphMostly Cloudy
3:50 PM46.4 °F41.0 °F81 %30.30 in2.5 miNNE (30°)5.8 mphMostly Cloudy
4:20 PM44.6 °F41.0 °F87 %30.30 in2.5 miNNE (30°)4.6 mphMostly Cloudy
4:50 PM44.6 °F41.0 °F87 %30.30 in2.5 miNNE (20°)5.8 mphMostly Cloudy
5:20 PM44.6 °F39.2 °F81 %30.33 in2.5 miNNE (30°)6.9 mphMostly Cloudy
5:50 PM44.6 °F39.2 °F81 %30.33 in2.5 miNNE (30°)5.8 mphMostly Cloudy
6:20 PM44.6 °F39.2 °F81 %30.33 in2.5 miNorth (10°)5.8 mphMostly Cloudy
6:50 PM44.6 °F39.2 °F81 %30.36 in2.5 miNorth (10°)4.6 mphMostly Cloudy
7:20 PM42.8 °F39.2 °F87 %30.36 in2.5 miNorth (360°)6.9 mphMostly Cloudy
7:50 PM42.8 °F39.2 °F87 %30.36 in2.5 miNorth (10°)4.6 mphMostly Cloudy
8:00 PM43.0 °F40.0 °F83 %30.41 in2.0 miNorth (10°)4.6 mphMist
8:20 PM42.8 °F39.2 °F87 %30.36 in2.5 miNorth (360°)4.6 mphMostly Cloudy
8:50 PM42.8 °F39.2 °F87 %30.36 in2.5 miNorth (360°)5.8 mphMostly Cloudy
9:20 PM42.8 °F39.2 °F87 %30.36 in2.5 miNorth (360°)4.6 mphMostly Cloudy
9:50 PM42.8 °F39.2 °F87 %30.36 in2.5 miNorth (350°)5.8 mphMostly Cloudy
10:20 PM42.8 °F39.2 °F87 %30.36 in2.5 miNorth (360°)6.9 mphMostly Cloudy
10:50 PM42.8 °F39.2 °F87 %30.36 in2.5 miNorth (360°)5.8 mphMostly Cloudy
11:20 PM42.8 °F39.2 °F87 %30.36 in2.5 miNorth (360°)6.9 mphMostly Cloudy
11:50 PM42.8 °F39.2 °F87 %30.36 in2.5 miNorth (360°)5.8 mphMostly Cloudy
Hourly data recorded from LTAJ, located miles away from Birecik, Turkey







STORIES FROM OUR PARTNERS